Precipitable_Water
0.69 0.67 0.64 0.62 0.60 0.57 0.55 0.54 0.52 0.52 0.51 0.50 0.47 0.43 0.40 0.34 0.31 0.31 0.28 0.27 0.26 0.27 0.30 0.32 0.31 0.23 0.14 0.11 0.12 0.20 0.25 0.25 0.25 0.25 0.22 0.21 0.18 0.14 0.10 0.12 0.13 0.11 0.11 0.13 0.14 0.14 0.16
0.70 0.70 0.68 0.66 0.62 0.61 0.60 0.58 0.56 0.54 0.51 0.49 0.47 0.44 0.39 0.33 0.29 0.30 0.28 0.28 0.28 0.28 0.29 0.32 0.32 0.23 0.13 0.09 0.17 0.22 0.24 0.26 0.26 0.24 0.22 0.21 0.18 0.18 0.15 0.13 0.11 0.12 0.11 0.11 0.12 0.10 0.11
0.69 0.68 0.68 0.67 0.66 0.65 0.64 0.61 0.57 0.53 0.51 0.48 0.47 0.43 0.37 0.33 0.30 0.31 0.27 0.27 0.28 0.27 0.26 0.31 0.32 0.19 0.13 0.11 0.17 0.22 0.25 0.26 0.27 0.25 0.21 0.24 0.24 0.20 0.20 0.15 0.17 0.15 0.11 0.13 0.11 0.10 0.11
0.68 0.68 0.68 0.67 0.67 0.67 0.66 0.64 0.60 0.55 0.51 0.48 0.47 0.42 0.37 0.33 0.31 0.30 0.29 0.26 0.26 0.27 0.26 0.24 0.22 0.15 0.11 0.15 0.18 0.19 0.23 0.26 0.30 0.29 0.27 0.28 0.28 0.25 0.24 0.25 0.21 0.16 0.15 0.11 0.12 0.14 0.15
0.70 0.68 0.66 0.66 0.66 0.65 0.65 0.63 0.62 0.58 0.51 0.48 0.45 0.44 0.38 0.34 0.31 0.31 0.31 0.28 0.27 0.26 0.27 0.20 0.16 0.14 0.11 0.15 0.13 0.19 0.23 0.22 0.25 0.29 0.29 0.28 0.28 0.25 0.25 0.18 0.13 0.15 0.11 0.13 0.14 0.17 0.15
0.73 0.71 0.69 0.68 0.69 0.67 0.65 0.63 0.60 0.60 0.53 0.47 0.44 0.43 0.39 0.35 0.31 0.32 0.33 0.27 0.26 0.21 0.21 0.20 0.17 0.13 0.13 0.12 0.14 0.16 0.21 0.23 0.21 0.23 0.22 0.23 0.23 0.22 0.22 0.17 0.08 0.11 0.12 0.14 0.15 0.18 0.18
0.76 0.76 0.75 0.73 0.72 0.71 0.67 0.64 0.62 0.62 0.57 0.48 0.44 0.43 0.40 0.36 0.31 0.35 0.29 0.24 0.18 0.17 0.17 0.17 0.15 0.15 0.15 0.16 0.16 0.14 0.19 0.21 0.21 0.20 0.15 0.21 0.18 0.16 0.19 0.20 0.18 0.16 0.14 0.13 0.15 0.21 0.20
0.82 0.86 0.82 0.79 0.78 0.77 0.71 0.65 0.63 0.67 0.61 0.49 0.43 0.43 0.41 0.37 0.32 0.33 0.31 0.24 0.25 0.22 0.15 0.20 0.20 0.19 0.18 0.18 0.12 0.14 0.17 0.15 0.16 0.14 0.18 0.16 0.15 0.21 0.23 0.21 0.16 0.15 0.13 0.13 0.17 0.20 0.21
0.83 0.85 0.81 0.76 0.76 0.78 0.73 0.66 0.65 0.68 0.63 0.49 0.44 0.43 0.41 0.38 0.37 0.30 0.30 0.28 0.38 0.31 0.15 0.19 0.21 0.20 0.18 0.18 0.13 0.13 0.15 0.15 0.14 0.14 0.15 0.14 0.18 0.22 0.21 0.19 0.14 0.13 0.13 0.14 0.15 0.19 0.21
0.81 0.83 0.88 0.83 0.80 0.75 0.72 0.67 0.65 0.66 0.64 0.50 0.45 0.44 0.39 0.40 0.32 0.32 0.28 0.35 0.39 0.34 0.14 0.18 0.19 0.21 0.20 0.18 0.13 0.17 0.16 0.15 0.13 0.13 0.15 0.15 0.20 0.18 0.19 0.17 0.18 0.12 0.19 0.18 0.18 0.18 0.14
0.84 0.86 0.88 0.91 0.87 0.82 0.75 0.67 0.64 0.65 0.61 0.52 0.49 0.46 0.39 0.42 0.33 0.32 0.35 0.37 0.38 0.29 0.13 0.20 0.21 0.27 0.23 0.17 0.16 0.14 0.18 0.14 0.10 0.12 0.14 0.12 0.15 0.16 0.16 0.18 0.23 0.19 0.24 0.22 0.21 0.20 0.19
0.83 0.85 0.86 0.91 0.93 0.90 0.86 0.74 0.64 0.63 0.60 0.51 0.52 0.50 0.44 0.39 0.37 0.40 0.41 0.40 0.34 0.19 0.14 0.19 0.22 0.22 0.21 0.20 0.17 0.18 0.16 0.18 0.16 0.12 0.12 0.13 0.18 0.19 0.18 0.21 0.22 0.23 0.22 0.23 0.24 0.22 0.13
0.82 0.86 0.89 0.91 0.95 0.94 0.90 0.85 0.75 0.64 0.57 0.48 0.52 0.53 0.45 0.43 0.36 0.45 0.44 0.34 0.21 0.18 0.22 0.20 0.20 0.22 0.21 0.19 0.18 0.18 0.16 0.15 0.13 0.09 0.08 0.09 0.11 0.16 0.18 0.17 0.21 0.20 0.15 0.10 0.10 0.12 0.12
0.79 0.86 0.88 0.89 0.98 0.97 0.94 0.89 0.82 0.69 0.57 0.44 0.44 0.54 0.52 0.48 0.48 0.48 0.39 0.28 0.20 0.21 0.21 0.24 0.23 0.22 0.19 0.20 0.20 0.19 0.16 0.15 0.18 0.15 0.10 0.08 0.06 0.11 0.14 0.15 0.15 0.18 0.17 0.11 0.08 0.09 0.11
0.78 0.83 0.86 0.84 0.94 1.00 0.97 0.93 0.85 0.74 0.61 0.45 0.42 0.41 0.50 0.50 0.52 0.48 0.34 0.27 0.24 0.23 0.23 0.22 0.23 0.21 0.20 0.21 0.20 0.19 0.18 0.16 0.19 0.18 0.11 0.09 0.07 0.11 0.14 0.15 0.16 0.15 0.14 0.19 0.13 0.14 0.11
0.80 0.84 0.88 0.87 0.93 1.02 0.98 0.93 0.89 0.78 0.58 0.47 0.38 0.40 0.47 0.52 0.53 0.46 0.37 0.29 0.26 0.28 0.26 0.25 0.21 0.22 0.20 0.21 0.19 0.19 0.18 0.19 0.19 0.22 0.21 0.15 0.10 0.10 0.11 0.13 0.13 0.13 0.18 0.14 0.14 0.08 0.07
0.83 0.87 0.90 0.92 0.89 1.02 0.98 0.94 0.90 0.82 0.61 0.49 0.40 0.36 0.47 0.51 0.47 0.45 0.34 0.32 0.30 0.33 0.30 0.25 0.23 0.22 0.22 0.22 0.22 0.19 0.18 0.20 0.22 0.22 0.23 0.20 0.15 0.13 0.11 0.10 0.09 0.08 0.08 0.14 0.14 0.13 0.09
0.88 0.92 0.91 0.92 0.92 0.94 0.99 0.94 0.89 0.84 0.67 0.46 0.41 0.35 0.49 0.47 0.38 0.37 0.36 0.36 0.35 0.32 0.33 0.29 0.28 0.25 0.23 0.23 0.22 0.20 0.19 0.20 0.24 0.24 0.19 0.21 0.18 0.15 0.10 0.13 0.14 0.12 0.09 0.09 0.08 0.08 0.11
0.90 0.90 0.94 0.95 0.96 0.91 0.98 0.94 0.91 0.86 0.77 0.53 0.39 0.38 0.48 0.45 0.31 0.34 0.36 0.37 0.36 0.33 0.33 0.31 0.29 0.28 0.27 0.24 0.21 0.22 0.21 0.24 0.25 0.23 0.21 0.22 0.17 0.13 0.14 0.15 0.14 0.10 0.10 0.10 0.10 0.10 0.08
0.95 0.92 0.96 0.98 0.97 0.96 0.95 0.98 0.92 0.88 0.82 0.65 0.44 0.34 0.35 0.37 0.36 0.35 0.34 0.33 0.35 0.38 0.35 0.34 0.31 0.30 0.27 0.26 0.26 0.22 0.21 0.23 0.25 0.25 0.27 0.24 0.19 0.16 0.13 0.14 0.15 0.11 0.10 0.11 0.10 0.07 0.07
0.99 0.93 0.99 1.02 0.98 0.96 0.95 0.99 0.95 0.91 0.86 0.71 0.59 0.48 0.46 0.32 0.35 0.36 0.34 0.34 0.34 0.36 0.37 0.36 0.32 0.31 0.27 0.25 0.24 0.22 0.23 0.23 0.24 0.26 0.24 0.22 0.18 0.19 0.18 0.18 0.16 0.14 0.11 0.11 0.10 0.10 0.08
1.03 0.96 1.00 1.04 1.01 0.97 0.93 0.99 0.96 0.94 0.86 0.73 0.59 0.56 0.55 0.44 0.41 0.36 0.37 0.33 0.36 0.38 0.38 0.34 0.33 0.32 0.31 0.27 0.26 0.22 0.23 0.22 0.21 0.24 0.24 0.24 0.18 0.19 0.18 0.18 0.17 0.15 0.13 0.13 0.13 0.13 0.11
1.05 1.02 1.08 1.06 1.08 1.00 0.90 0.93 0.96 0.96 0.89 0.73 0.73 0.70 0.60 0.53 0.46 0.44 0.40 0.39 0.37 0.41 0.43 0.40 0.37 0.34 0.33 0.32 0.32 0.30 0.28 0.26 0.25 0.23 0.24 0.23 0.20 0.18 0.16 0.18 0.17 0.12 0.12 0.12 0.14 0.15 0.13
1.08 1.09 1.06 1.14 1.10 1.01 0.91 0.86 0.94 0.95 0.92 0.83 0.78 0.72 0.60 0.49 0.50 0.47 0.48 0.46 0.44 0.41 0.40 0.45 0.44 0.38 0.38 0.41 0.40 0.35 0.29 0.26 0.27 0.26 0.27 0.23 0.22 0.20 0.17 0.18 0.13 0.15 0.17 0.16 0.14 0.15 0.17
1.12 1.10 1.10 1.14 1.12 1.04 0.94 0.89 0.88 0.96 0.95 0.87 0.85 0.77 0.67 0.52 0.55 0.53 0.53 0.51 0.49 0.48 0.46 0.47 0.48 0.46 0.47 0.40 0.31 0.28 0.26 0.23 0.24 0.26 0.26 0.27 0.23 0.19 0.16 0.16 0.18 0.16 0.17 0.17 0.15 0.16 0.16
1.14 1.09 1.08 1.12 1.11 1.08 0.96 0.93 0.90 0.95 0.97 0.91 0.87 0.88 0.76 0.61 0.57 0.63 0.56 0.55 0.50 0.48 0.47 0.49 0.53 0.52 0.47 0.36 0.31 0.26 0.25 0.24 0.21 0.22 0.27 0.26 0.26 0.21 0.19 0.16 0.15 0.18 0.19 0.21 0.19 0.14 0.17
1.07 1.05 1.09 1.12 1.13 1.10 1.02 0.99 0.99 0.91 0.95 0.92 0.85 0.90 0.80 0.65 0.70 0.68 0.60 0.57 0.59 0.54 0.49 0.51 0.50 0.48 0.46 0.35 0.32 0.29 0.27 0.29 0.23 0.21 0.21 0.22 0.22 0.20 0.19 0.18 0.19 0.22 0.23 0.23 0.15 0.15 0.19
1.15 1.14 1.11 1.14 1.13 1.13 1.06 1.04 1.03 0.91 0.93 0.91 0.86 0.91 0.82 0.70 0.74 0.75 0.73 0.66 0.63 0.60 0.51 0.55 0.52 0.47 0.43 0.37 0.34 0.32 0.29 0.30 0.27 0.25 0.24 0.22 0.21 0.20 0.20 0.18 0.16 0.24 0.24 0.19 0.20 0.22 0.22
1.24 1.20 1.15 1.16 1.12 1.11 1.10 1.05 1.06 0.97 0.93 0.92 0.83 0.92 0.89 0.76 0.75 0.85 0.81 0.81 0.78 0.74 0.63 0.59 0.56 0.51 0.50 0.41 0.39 0.37 0.34 0.33 0.30 0.23 0.27 0.21 0.25 0.24 0.24 0.23 0.27 0.27 0.25 0.25 0.25 0.24 0.23
Wind_Speed
16 15 15 15 15 15 15 15 15 14 14 14 13 11 11 8 7 9 10 15 16 22 22 24 25 28 27 29 29 35 34 34 33 32 31 30 30 27 23 21 21 23 25 29 34 38 43
17 15 15 15 16 16 17 16 15 15 14 13 13 12 10 9 8 10 9 13 16 20 24 22 24 26 29 30 34 35 35 34 33 31 31 31 30 27 21 20 17 19 24 29 32 36 40
18 17 16 16 16 17 18 18 17 15 14 13 14 12 10 10 8 10 9 12 16 18 23 22 22 24 29 30 35 36 34 34 33 32 32 31 29 27 23 20 17 19 20 22 27 31 34
18 17 17 17 17 17 18 18 18 15 14 13 13 12 11 11 10 11 10 10 15 16 21 23 21 25 26 32 37 35 33 33 33 33 33 32 31 27 23 21 17 15 13 14 18 23 28
18 18 18 18 18 19 18 18 18 16 14 13 12 13 12 11 11 12 10 9 14 15 18 23 23 23 27 32 36 36 34 33 32 33 34 33 33 29 25 19 15 11 11 14 13 14 20
18 19 19 19 19 19 18 18 18 17 14 12 12 13 12 12 13 11 10 7 12 14 18 20 26 22 28 30 34 37 34 33 32 33 32 33 34 30 24 19 13 11 10 10 12 12 16
19 20 20 19 20 19 19 18 19 18 16 12 12 13 12 13 13 11 10 10 13 12 17 21 21 23 26 27 30 38 33 31 32 33 33 34 36 34 29 19 16 11 7 9 11 10 10
19 20 20 20 20 20 20 19 19 19 17 12 12 12 12 12 13 12 11 12 12 10 12 19 22 25 26 26 29 36 37 30 32 32 34 35 34 33 31 23 20 11 6 7 7 4 5
19 20 21 21 21 21 21 19 20 20 17 12 12 12 12 10 13 13 12 11 11 10 11 17 22 25 27 26 27 34 37 30 31 32 32 32 32 32 30 26 23 15 10 8 8 9 4
18 20 21 22 23 22 22 20 21 21 17 13 13 13 12 11 12 13 13 11 11 10 11 19 22 24 27 25 25 31 35 29 29 30 29 28 31 31 28 24 24 17 13 13 11 9 4
17 19 21 22 23 23 24 22 22 21 17 13 13 13 12 12 12 13 12 11 10 10 12 19 20 23 25 24 25 29 33 30 28 28 28 27 30 29 25 24 22 16 18 13 10 8 6
16 18 20 21 23 24 25 24 24 22 17 14 14 13 12 13 13 13 11 9 9 11 10 16 18 23 23 24 25 27 30 32 27 25 27 25 28 26 25 23 19 20 15 13 11 11 10
16 18 19 21 22 24 25 26 25 24 19 14 13 14 14 13 13 12 10 10 9 10 14 17 18 22 21 23 23 27 28 31 30 28 28 27 25 26 28 25 21 24 19 14 14 14 10
16 18 19 20 22 23 24 26 26 26 20 14 12 14 15 14 12 11 10 9 10 10 13 15 18 19 20 24 22 26 25 28 29 28 24 26 25 27 28 25 20 21 18 15 12 13 11
15 18 19 20 22 23 24 26 27 27 20 15 12 14 15 15 11 10 10 10 7 9 13 16 17 18 19 21 21 24 24 24 25 27 24 25 22 25 24 24 25 21 21 14 13 12 12
15 18 19 20 21 23 24 25 28 28 21 15 13 13 15 13 11 10 9 8 9 11 12 15 16 18 18 21 22 23 23 21 25 26 24 22 22 21 23 23 24 22 20 18 16 16 13
15 17 19 19 21 23 24 25 28 28 22 15 13 11 16 12 10 10 9 8 10 11 13 14 15 16 16 19 19 20 20 20 23 24 23 22 21 23 21 23 21 23 22 20 15 15 11
15 17 19 20 20 20 23 25 27 27 23 16 13 11 15 10 11 9 9 10 11 11 12 13 14 15 16 18 18 18 19 18 22 23 22 22 19 22 18 19 20 20 19 19 17 16 13
16 17 19 19 20 19 21 23 25 26 24 17 13 12 12 11 9 10 8 10 10 11 12 12 14 15 16 16 18 16 18 19 21 22 21 21 21 23 22 20 20 20 19 18 18 16 13
17 17 18 18 19 17 20 22 23 25 24 18 14 13 11 10 10 9 10 11 12 11 12 13 14 15 16 16 15 17 18 18 21 20 20 20 19 17 16 18 19 19 17 17 16 15 14
18 18 17 17 17 16 17 20 21 23 23 17 16 13 12 10 11 10 9 11 13 13 12 12 14 14 14 16 18 16 18 19 19 20 20 20 18 19 20 21 18 17 16 15 14 13 12
18 18 17 17 16 15 15 17 19 20 19 18 15 13 13 10 9 10 12 11 13 14 11 12 13 15 14 14 14 17 18 17 16 19 20 21 19 22 21 19 18 18 15 14 14 15 16
18 18 18 16 16 14 15 16 17 17 17 14 16 15 13 13 11 11 10 11 12 13 12 12 13 14 15 16 16 18 17 16 16 17 19 20 21 23 20 23 22 19 15 14 16 16 15
19 18 18 17 16 14 14 15 15 15 15 13 14 13 13 13 12 11 11 13 14 13 14 15 14 14 15 17 18 17 16 14 15 17 17 18 21 20 20 25 19 18 16 16 16 18 18
20 20 19 18 17 15 15 15 15 14 14 12 13 13 12 13 12 13 13 13 15 15 16 16 16 15 17 18 17 18 16 15 15 18 18 18 19 21 20 21 22 20 17 16 18 23 17
21 21 20 19 18 17 16 16 16 15 15 14 14 14 13 13 13 14 14 14 16 16 18 17 17 17 17 16 17 16 16 17 17 18 18 18 18 18 20 19 18 18 19 19 21 20 19
23 22 21 20 20 19 18 18 17 17 16 16 16 16 15 16 16 15 16 15 15 17 18 18 18 18 17 16 17 16 17 16 17 17 17 18 18 17 18 19 23 19 19 20 20 21 22
25 24 23 22 21 21 21 20 20 19 19 18 18 18 18 19 20 17 18 17 18 19 18 19 20 17 18 18 18 18 17 17 19 18 18 16 15 18 19 20 23 17 19 18 21 25 26
27 26 25 24 23 23 23 23 22 21 20 20 20 21 21 21 22 23 21 22 22 21 20 20 20 19 18 19 20 19 20 20 19 21 19 19 17 18 16 20 23 20 22 24 25 26 27
Wind_Direction
25 25 25 23 19 15 11 6 3 2 1 2 2 1 2 4 4 2 7 9 9 11 9 9 10 10 7 7 2 355 354 353 351 350 348 345 342 336 325 308 290 269 260 253 249 247 242
26 25 23 22 20 17 13 9 5 3 2 4 4 3 3 2 356 354 353 2 4 6 6 4 7 9 9 10 1 359 358 357 355 354 351 347 343 338 327 314 296 280 270 258 249 244 241
28 27 24 21 17 13 11 8 5 4 6 6 7 8 7 3 359 356 350 355 359 0 4 3 3 5 7 7 3 2 1 1 1 359 355 352 348 342 332 321 303 288 282 272 251 241 236
23 22 19 15 11 8 7 6 6 5 5 4 6 10 7 6 1 356 352 353 359 2 6 9 6 7 6 5 4 4 3 4 4 2 359 356 353 347 338 325 315 300 286 285 264 242 235
21 19 16 12 8 4 4 5 6 6 4 6 7 6 5 4 358 352 353 352 0 4 3 8 6 5 6 5 6 6 4 3 1 2 3 3 359 354 345 338 329 317 290 295 280 248 239
18 16 12 9 8 8 9 7 7 5 3 2 2 3 2 0 357 356 357 350 2 4 3 1 7 3 3 2 5 4 2 5 5 4 4 4 3 360 356 355 339 314 306 298 289 263 250
17 15 13 13 12 11 10 8 5 2 359 357 358 358 359 1 360 0 359 352 342 346 4 10 7 7 360 360 6 8 5 6 7 10 8 7 8 8 3 358 346 324 300 303 293 276 250
17 15 15 14 11 9 7 6 4 2 359 355 356 356 357 358 3 359 354 353 347 349 357 3 3 2 2 3 4 6 8 9 10 10 9 11 12 13 13 14 9 10 5 338 318 299 249
15 16 14 12 9 7 5 3 2 1 0 360 357 356 354 351 357 356 355 352 354 353 1 360 2 2 2 4 7 4 9 8 12 11 12 15 12 15 21 22 24 35 40 20 1 342 263
14 15 14 14 11 9 6 3 0 359 358 358 356 356 355 353 351 352 353 351 355 358 7 358 0 4 4 4 8 7 9 11 12 11 12 13 14 17 21 26 28 33 34 11 357 5 2
10 10 11 11 12 11 7 4 1 359 359 357 356 354 355 353 353 354 352 355 2 5 5 355 359 1 5 12 3 6 10 12 14 11 17 13 15 16 21 22 29 25 11 7 8 25 13
5 6 7 8 9 9 8 7 4 1 359 358 356 355 352 350 352 355 357 2 7 10 353 2 359 1 5 7 8 4 11 14 14 13 15 14 18 22 19 13 25 13 20 25 26 29 41
1 2 3 5 5 5 6 6 4 1 358 355 359 0 356 352 352 355 360 2 6 22 2 357 358 1 4 2 6 9 10 14 18 15 15 13 16 18 21 20 22 22 27 26 28 31 34
357 359 360 360 0 0 1 1 1 359 356 352 349 359 358 355 353 357 359 5 22 2 358 1 359 358 7 6 7 6 10 13 16 17 16 18 14 20 17 27 20 24 34 40 36 31 24
352 354 355 354 355 357 357 359 359 358 354 352 347 348 354 354 359 0 6 16 4 358 0 360 358 6 4 6 5 7 11 11 12 15 19 15 10 14 17 21 25 18 27 26 30 24 31
348 350 350 351 353 355 356 357 358 359 357 353 352 353 357 355 359 1 12 14 4 1 2 2 7 7 1 360 5 9 8 9 11 14 15 12 9 14 13 21 23 29 24 25 25 26 19
341 346 349 349 350 352 355 356 357 359 358 356 357 358 358 2 3 15 18 7 3 3 2 3 2 359 358 359 5 3 3 7 9 9 14 14 16 6 14 18 19 18 22 23 30 28 27
332 338 343 345 345 349 354 356 359 1 0 359 358 358 358 4 13 13 14 7 3 5 2 2 1 357 357 359 1 3 3 3 4 6 7 9 13 4 5 10 18 22 21 25 26 7 19
321 326 333 339 343 345 351 355 360 2 3 1 1 356 357 5 11 6 1 1 359 1 358 359 357 355 357 357 1 1 1 2 3 4 7 6 7 6 8 11 10 14 12 18 20 18 12
313 319 324 331 338 340 348 353 358 2 4 7 6 4 1 13 9 10 3 359 356 352 354 354 354 358 358 355 358 356 358 2 1 3 5 5 6 7 2 350 358 357 2 6 12 13 5
306 312 315 322 330 333 343 352 357 1 5 9 11 11 8 357 2 1 354 351 353 350 349 350 353 352 357 357 355 356 356 354 2 2 5 5 360 359 350 342 348 341 343 356 359 353 1
298 305 308 312 319 325 334 346 352 357 3 13 11 10 6 1 351 349 353 345 347 347 347 343 347 350 352 348 348 346 354 354 355 360 1 360 358 357 354 359 357 345 342 344 352 349 337
292 298 303 305 308 313 325 335 346 352 359 2 6 7 11 1 354 352 342 340 337 346 342 336 335 343 341 333 339 339 339 342 342 351 355 359 359 359 353 357 351 358 354 354 353 347 349
286 291 297 298 300 302 310 325 332 342 351 354 357 359 359 354 0 350 343 339 334 331 333 334 332 335 335 340 340 344 346 343 343 345 347 353 356 357 350 353 360 351 353 352 340 334 331
281 285 289 292 291 290 299 311 319 327 335 337 342 346 349 345 343 341 335 334 335 329 327 328 324 321 329 335 339 343 343 343 344 345 343 344 350 348 351 349 341 350 349 344 346 337 339
277 281 283 287 284 283 291 298 308 311 318 321 325 331 331 335 328 333 333 328 332 332 330 328 330 323 326 329 335 334 332 335 334 336 342 342 344 344 346 347 342 340 343 342 344 340 337
271 277 279 280 279 278 284 292 295 300 305 310 311 312 315 317 319 320 321 322 328 329 324 327 327 325 322 324 323 323 324 329 329 328 332 336 336 335 334 332 331 330 338 341 347 335 336
267 272 275 278 277 273 278 284 288 292 294 300 303 303 307 308 310 308 310 313 319 320 321 323 325 324 321 320 320 318 319 320 326 321 323 324 329 329 337 334 332 334 338 334 330 331 330
264 268 271 273 274 273 275 279 282 286 288 291 297 299 299 301 302 305 300 303 306 309 315 315 316 314 311 318 316 319 313 317 318 319 318 320 315 322 315 320 325 318 323 323 325 325 326